Location: Krakow
(50.0830°N, 19.9170°E)
Time: 04:44:26
(UTC+02:00)

Tiros 1 - Pass Details

Date: 14 February 2023
Orbit: 627 x 662 km, 48.4° (Epoch: 25 March)

Event Time Altitude Azimuth Distance (km) Brightness Sun altitude
Rises 22:09:22 0° 262° (W) 2,909 - -47.0°
Reaches altitude 10° 22:11:41 10° 260° (W) 2,001 - -47.3°
Maximum altitude 22:16:16 72° 176° (S) 661 - -47.7°
Drops below altitude 10° 22:20:52 10° 93° (E) 2,007 - -48.2°
Sets 22:23:11 0° 91° (E) 2,918 - -48.4°
